Погода Имени Попова

Погода Имени Попова : погода сейчас, прогноз погоды и архив. Всё, что Вы хотите узнать о погоде Имени Попова!

Поиск расширенной информации на нашем сайте:

Другие новости

Новости СМИ2

Главная страница сайта

Новости сайта

02.10.2013

Напоминаем, что на нашем новом сайте вы можете получить высокодетализированные прогнозы погоды по пунктам России, СНГ и мира (включающие важные для авиации метеовеличины, такие как направление и скорость ветра, видимость, явления погоды, количество и форма облачности, нижняя и верхняя граница облачности), а также ознакомиться с разнообразными материалами по авиационной метеорологии и подборкой полезных ссылок на эту тему.

Сайт Метеоцентр.Азия посвящён разработке технологий оптимизации авиаметеорологического обслуживания, включая проектирование и перспективное создание нескольких автоматизированных авиаметеорологических систем:
- система выпуска высокодетальных прогностических карт явлений погоды для нижнего воздушного пространства по России и ближнему зарубежью;
- система верификации прогнозов TAF (выпускаемых синоптиками официальных АМСГ РФ и ближнего зарубежья) и AUTOTAF (выпускаемых сайтом Метеоцентр.Азия) - выявление ошибок, онлайн-сопоставление с фактической погодой METAR, автоматическое внесение коррективов в прогнозы при резком отклонении фактической погоды от прогноза, подсчёт оправдываемости прогнозов по элементам и в целом;
- система обработки, анализа и отображения авиаметеорологической информации для применения провайдерами метеорологической информации.

Рекомендуем: Юридический перевод украинского паспорта http://www.english-perewod.ru.

Погода Имени Попова - сегодня

Время (UTC), дата Ветер
(°,м/с) 
Видим.   Явления Облачность Т
(°С)
Тd
(°С)
f(%) Тe
(°С)
Pmin
(гПа)
dP
(гПа)
Po
(мм)
O2
(г/м3)
Тmin Tmax R s Состояние
почвы
00 27.03.17 200 (Ю) 10-12{12}  20000 м  позёмок{снег}  10/0 средняя 
[As op]
-5.8 -6.6 94 -12  988.6  741  306           
06 27.03.17 180 (Ю) 11-13{14}  2000 м  метель  10/0 средняя 
[Ac und]
-6.9 -7.5 95 -14  987.5  -0.6  740  307  -6.9         
12 27.03.17 160 (Ю) 5{10}  20000 м    10/0 верхняя 
[Cs]
-10.7 -11.9 91 -16  985.4  -1.6  738  311           
15 27.03.17 150 (ЮВ) н/о    н/о 
-9.9 -11 92 -15  983.8  -1.5  737  309    -5.4       
18 27.03.17 110 (В) 4000 м  слаб. снег  10/0 средняя 
[As op]
-7.3 -7.8 96 -12  981  -2.8  735  305           
21 27.03.17 110 (В) 2000 м  снег  10/0 средняя 
[As op]
-5.5 -5.8 98 -9  978  -2.8  733  302           
00 28.03.17 140 (ЮВ) 4000 м  слаб. снег  10/10 210 м 
[Frnb|Ns]
-4.4 -4.7 98 -9  976.2  -1.8  732  300           
03 28.03.17 160 (Ю) 20000 м  {снег}  10/0 средняя 
[Ac und]
-5.4 -5.8 97 -9  974.9  -1.3  731  301  -9.9    43  неравномерный
сухой снег
100% 
06 28.03.17 220 (ЮЗ) 1000 м  сильн. снег  10/8 240 м средняя 
[Frnb|As op]
-6.9 -7.6 95 -12  975.3  0.4  731  303  -8.3         
09 28.03.17 210 (ЮЗ) 20000 м  позёмок{снег}  10/0 средняя 
[As op]
-6.2 -6.8 96 -11  977.1  732  303           
12 28.03.17 210 (ЮЗ) 4000 м  слаб. снег  10/0 средняя 
[As op]
-5.8 -6.3 96 -10  978.4  733  303           
15 28.03.17 200 (Ю) 4000 м  слаб. снег  10/10 300 м 
[]
-5 -5.3 98 -10  979  0.6  734  302    -4.5  0.3     
18 28.03.17 200 (Ю) 4000 м  слаб. снег  10/10 270 м 
[Frnb|Ns]
-6.2 -6.6 97 -10  979.5  0.5  734  303           
21 28.03.17 210 (ЮЗ) 4000 м  слаб. снег  10/10 270 м 
[Frnb|Ns]
-6.2 -6.6 97 -10  980.1  0.6  735  304           
00 29.03.17 210 (ЮЗ) 4000 м  слаб. снег  10/10 270 м 
[Frnb|Ns]
-5.4 -5.9 96 -8  980.6  0.5  735  303           
03 29.03.17 230 (ЮЗ) 4000 м  слаб. снег  10/10 270 м 
[Frnb|Ns]
-4.6 -5 97 -6  981.3  0.7  735  302  -6.9    0.6  43  неравномерный
сухой снег
100% 
06 29.03.17 060 (СВ) 20000 м  {снег}  9/0 средняя, верхняя 
[Ac As|Cc]
-8.4 -9.1 95 -11  982.1  0.8  736  307  -9         
09 29.03.17 340 (С) 20000 м  в посл. час снег  10/8 210 м средняя 
[St|As op]
-6 -6.5 96 -7  983.3  1.2  737  304           
12 29.03.17 020 (С) 20000 м  {снег}  10/0 средняя, верхняя 
[As op|Cc]
-8.3 -8.9 95 -12  983.9  0.6  737  307           
15 29.03.17 360 (С) 4000 м  слаб. снег  10/10 210 м 
[Frnb|Ns]
-8.8 -9.4 95 -13  984.5  0.6  738  308    -3.7  0.4     
18 29.03.17 030 (СВ) 2000 м  снег  10/10 210 м 
[Frnb|Ns]
-8.1 -8.6 96 -12  984.6  0.1  738  307           
21 29.03.17 030 (СВ) 4000 м  слаб. снег  10/10 240 м 
[Frnb|Ns]
-8.2 -8.7 96 -13  985.2  0.6  738  308           
00 30.03.17 040 (СВ) 2000 м  снег  10/10 270 м 
[Frnb|Ns]
-9.4 -10.1 95 -15  985.7  0.5  739  309           
03 30.03.17 040 (СВ) 2000 м  снег  10/10 360 м 
[Ns]
-8.7 -9.4 95 -15  986.1  0.4  739  309  -9.5    48  неравномерный
сухой снег
100% 
06 30.03.17 040 (СВ) 2000 м  снег  10/10 240 м 
[Frnb|Ns]
-8.4 -9.1 95 -14  986.7  0.4  740  308           
Время (UTC), дата Ветер
(°,м/с) 
Видим.   Явления Облачность Т
(°С)
Тd
(°С)
f(%) Тe
(°С)
Pmin
(гПа)
dP
(гПа)
Po
(мм)
O2
(г/м3)
Тmin Tmax R s Состояние
почвы

Для получения пояснительной информации подведите курсор к названию столбца.

ПОГОДА Имени Попова - архив

Всё, что Вы хотите узнать о погоде Имени Попова - удобно и подробно!

Выберите нужную дату (начиная с 1 января 2015* года) и нажмите кнопку "Найти".
Будут отображены архивные сводки погоды по пункту Имени Попова, начиная с указанной даты.


Отображать данные в формате CSV (для использования в таблицах Excel)


Внимание! Наш архив погоды предназначен исключительно для личного некоммерческого использования в познавательных целях. Если Вам необходимы официальные справки о состоянии погоды (для производственных, юридических, коммерческих и т.п. целей), обращайтесь в органы Росгидромета.

*Примечание: данная дата относится к архиву по метеостанциям СССР (Россия, СНГ, Балтия).
Архив по метеостанциям Зарубежной Европы и Азии (кроме Китая) хранится 10 дней, по другим регионам земного шара (Китай, Африка, Америка, Австралия, Океания) - 1 день.

Имени Попова - район местоположения метеостанции


Название, широта, долгота, высота метеостанции:
Имени Попова 73.3°ш. 70.1°д. 7 м над ур. моря [Российская Федерация]

Дополнительная информация

В oтличие oт бoльшинства пoгoдных сайтoв мы публикуем пoдрoбную метеoинфoрмацию в детальнoм прoфессиoнальнoм фoрмате.

Характеристики температуры и влажнoсти вoздуха измеряются на высoте 2 м в тени вдали oт зданий и деревьев.
Скoрoсть ветра измеряется на высoте 10 м (на урoвне рoста челoвека скoрoсть ветра ниже в 1.5-2 раза). Если метеoстанция нахoдится в гoрoде или в лесу, тo скoрoсть ветра занижена на 2-4 м/с пo сравнению с oткрытым местoм. Скoрoсть ветра над акватoриями крупных рек и oзёр, а также на вершинах хoлмoв на 2-5 м/с выше, чем в oбычных услoвиях.
Атмoсфернoе давление в разных тoчках местнoсти мoжет значительнo oтличаться oт давления на метеoстанции, в зависимoсти oт услoвий рельефа (при пoдъёме на 10 м давление пoнижается примернo на 1 мм рт.ст.).